This is the latest recevied weather packets stored in our database for station/object DD3FC-1. If no packets are shown the sender has not sent any weather packets the latest 10 day(s).
| Time | Temp. | Humidity | Pressure | Rain* | Wind** | Luminosity | Snow |
|---|---|---|---|---|---|---|---|
| 1777729840 | 28.33° C | 27% | 1019.9 hPa | 0 mm | - | - | - |
| 1777729240 | 28.33° C | 26% | 1019.9 hPa | 0 mm | - | - | - |
| 1777728640 | 28.33° C | 27% | 1020 hPa | 0 mm | - | - | - |
| 1777728040 | 28.33° C | 28% | 1020 hPa | 0 mm | - | - | - |
| 1777727440 | 28.33° C | 26% | 1020.3 hPa | 0 mm | - | - | - |
| 1777726840 | 28.89° C | 26% | 1020.3 hPa | 0.25 mm | - | - | - |
| 1777726240 | 28.89° C | 25% | 1020.7 hPa | 0.25 mm | - | - | - |
| 1777725640 | 28.33° C | 27% | 1020.7 hPa | 0.25 mm | - | - | - |
| 1777725040 | 28.33° C | 26% | 1020.8 hPa | 0.25 mm | - | - | - |
| 1777724440 | 29.44° C | 25% | 1020.9 hPa | 0.25 mm | - | - | - |
| 1777723840 | 28.89° C | 27% | 1020.9 hPa | 0.25 mm | - | - | - |
| 1777723240 | 28.89° C | 27% | 1021 hPa | 0 mm | - | - | - |
| 1777722640 | 28.89° C | 26% | 1021.2 hPa | 0 mm | - | - | - |
| 1777722040 | 29.44° C | 27% | 1021.3 hPa | 0 mm | - | - | - |
| 1777721440 | 28.33° C | 27% | 1021.6 hPa | 0 mm | - | - | - |
| 1777720840 | 27.78° C | 29% | 1021.8 hPa | 0 mm | - | - | - |
| 1777720241 | 27.78° C | 28% | 1021.9 hPa | 0 mm | - | - | - |
| 1777719640 | 27.22° C | 28% | 1022 hPa | 0 mm | - | - | - |
| 1777719040 | 26.67° C | 29% | 1022.1 hPa | 0 mm | - | - | - |
| 1777718441 | 26.67° C | 30% | 1022.5 hPa | 0 mm | - | - | - |
| 1777717841 | 27.22° C | 28% | 1022.6 hPa | 0 mm | - | - | - |
| 1777717241 | 26.67° C | 28% | 1022.6 hPa | 0 mm | - | - | - |
| 1777716641 | 25.56° C | 29% | 1022.8 hPa | 0 mm | - | - | - |
| 1777716041 | 26.11° C | 28% | 1022.9 hPa | 0 mm | - | - | - |
| 1777715441 | 25.56° C | 29% | 1022.9 hPa | 0 mm | - | - | - |
* Rain latest hour (hover to see other rain measurements)
** Current wind speed in m/s (hover to see current wind gust speed)